Location: De Har
(53.3413°N, 6.6858°E)
Time: 20:46:30
(UTC+00:00)

Cosmos 1900 - Pass Details

Date: 22 April 2026
Orbit: 688 x 726 km, 66.1° (Epoch: 21 May)

Event Time Altitude Azimuth Distance (km) Brightness Sun altitude
Exits shadow 00:17:31 67° 238° (WSW) 768 4.2 -23.8°
Maximum altitude 00:18:11 83° 312° (NW) 716 4.3 -23.8°
Drops below altitude 10° 00:23:08 10° 41° (NE) 2,170 7.7 -23.6°
Sets 00:25:29 0° 42° (NE) 3,086 8.6 -23.5°
